Lapse_Rate
-1.7 -2.1 -2.4 -2.7 -3.4 -3.9 -4.1 -4.3 -4.5 -4.6 -5.0 -5.6 -5.8 -5.7 -5.9 -6.2 -6.3 -6.7 -1.4 2.4 -0.3 -0.2 1.1 0.5 3.2 5.2 6.6 6.4 6.0 5.1 6.5 6.5 6.5 6.5 6.5 6.1 6.5 6.2 5.7 6.1 6.6 6.7 6.0 5.2 2.9
-1.8 -2.2 -2.5 -2.8 -3.3 -3.7 -3.8 -4.1 -4.4 -4.9 -5.2 -5.7 -5.9 -5.7 -6.1 -6.4 -5.3 -2.7 -0.3 0.8 -0.3 0.4 1.2 1.6 3.5 5.1 5.1 6.0 5.8 6.0 6.5 6.5 6.5 6.5 6.5 6.3 6.1 6.1 6.0 5.7 5.9 6.1 4.5 2.4 2.7
-1.9 -2.4 -2.6 -2.9 -3.2 -3.6 -4.1 -4.3 -4.5 -4.7 -5.1 -5.5 -5.5 -5.7 -6.1 -6.5 0.2 3.7 1.6 -0.0 -0.0 2.0 2.8 4.5 3.5 5.8 5.9 5.7 5.9 6.1 6.5 6.5 5.9 4.8 5.6 6.0 6.0 6.1 5.8 6.5 5.0 4.3 3.0 2.2 3.1
-1.9 -2.3 -2.7 -3.0 -3.4 -3.9 -4.3 -4.3 -4.2 -4.4 -4.9 -5.5 -5.5 -5.5 -6.0 -5.5 6.5 3.9 -0.4 -0.5 0.8 2.7 4.2 4.5 5.0 5.7 6.3 6.5 5.7 6.5 5.9 6.1 5.2 4.5 4.7 6.4 5.6 6.3 5.6 5.7 4.7 3.6 4.0 1.8 3.8
-2.1 -2.6 -2.9 -3.4 -3.8 -4.5 -4.6 -4.7 -4.7 -5.0 -5.3 -5.3 -5.3 -5.2 -5.0 2.6 2.6 0.6 0.0 -0.2 -0.2 3.3 4.6 4.7 5.5 5.3 6.5 6.3 6.1 6.5 6.4 5.5 4.7 4.4 4.3 4.3 5.5 6.2 5.7 3.6 4.2 3.9 3.7 3.3 3.4
-2.4 -2.8 -3.1 -3.6 -4.2 -4.6 -4.7 -5.3 -5.7 -5.9 -5.6 -5.2 -5.0 -4.7 -0.3 6.3 4.1 0.3 -0.4 0.3 1.5 2.8 3.9 4.2 4.5 4.5 5.8 6.2 6.5 6.0 5.5 5.5 4.6 4.7 5.0 6.0 6.0 5.1 3.6 3.1 3.1 2.8 3.8 3.9 3.3
-2.8 -3.2 -3.4 -3.9 -4.6 -4.7 -4.9 -5.9 -6.3 -6.0 -5.6 -5.2 -4.7 -3.1 2.1 5.3 3.4 0.8 0.9 2.2 1.8 3.2 3.8 4.0 5.4 6.3 6.0 6.5 5.7 5.8 6.5 6.5 6.0 6.2 6.4 5.3 6.5 6.5 4.3 4.0 4.0 3.7 3.8 4.6 3.6
-3.0 -3.5 -3.7 -4.1 -4.8 -4.7 -5.5 -6.1 -5.6 -5.3 -5.2 -4.6 -3.9 -2.0 1.9 3.4 1.5 1.9 1.8 3.3 2.4 3.3 5.2 4.9 5.2 6.0 5.9 5.6 5.0 6.5 6.5 6.5 6.5 6.3 5.8 6.3 6.5 6.5 4.5 4.2 4.3 5.2 5.1 4.9 4.4
-3.3 -3.8 -4.0 -4.3 -4.8 -4.9 -5.9 -5.9 -3.7 -4.1 -3.8 -3.7 -2.1 1.1 5.7 2.5 4.0 2.9 2.6 5.1 3.2 3.5 4.9 6.9 5.6 4.4 4.9 6.5 6.5 6.5 6.5 6.5 6.5 6.4 6.5 6.5 6.5 6.6 3.2 4.0 3.3 3.8 5.3 5.9 5.0
-3.4 -4.1 -4.5 -4.5 -4.7 -4.9 -6.1 -5.0 -3.3 -2.7 -2.3 -1.3 1.0 3.4 4.5 6.0 5.5 4.3 1.8 4.4 5.9 4.6 5.6 6.0 2.3 6.5 6.5 6.5 6.5 6.5 6.5 6.5 6.5 6.5 6.5 6.5 6.5 6.5 4.6 5.0 4.1 4.0 5.0 5.9 6.1
-3.6 -4.3 -4.8 -4.7 -5.1 -5.0 -5.2 -1.9 0.4 2.8 3.2 4.5 4.2 4.5 3.2 3.5 3.9 4.7 3.6 4.2 6.0 4.7 6.5 5.4 6.5 6.5 6.5 6.5 6.5 6.5 6.5 6.5 6.5 6.5 6.5 6.5 6.5 6.5 5.1 4.5 4.8 4.1 4.7 5.5 5.7
-3.4 -4.2 -5.1 -5.4 -5.1 -5.2 -3.0 2.1 5.3 4.0 4.6 3.0 3.0 3.7 2.2 4.2 5.1 5.7 5.1 5.7 5.9 6.5 6.4 6.5 6.5 6.5 6.5 6.5 6.5 6.5 6.5 6.5 6.5 6.5 6.5 6.5 6.5 6.5 6.5 6.3 5.5 5.1 4.3 4.9 6.0
-3.4 -3.9 -5.1 -5.2 -6.1 -2.4 -1.0 2.7 2.1 1.2 4.8 3.2 3.1 3.2 4.3 2.8 4.8 4.8 5.1 4.9 6.4 6.5 6.5 6.5 6.5 6.5 6.5 6.5 6.5 6.5 6.5 6.5 6.5 6.5 6.5 6.5 6.5 6.5 6.4 5.5 5.1 3.6 4.5 3.8 4.2
-3.3 -3.5 -4.8 -6.4 -0.2 -3.4 2.3 0.9 -1.3 -0.3 6.5 6.5 6.0 5.9 3.9 4.4 6.1 4.8 4.3 4.9 6.4 6.5 6.5 6.5 6.4 6.5 6.5 6.5 6.5 6.5 6.5 6.5 6.5 6.5 6.5 6.5 6.5 6.5 6.5 6.5 6.5 5.2 3.2 3.1 3.0
-3.4 -3.4 -4.6 -5.6 -4.0 -0.1 2.4 -3.3 -1.2 2.5 6.5 6.5 6.2 5.6 4.9 5.6 5.8 6.4 4.5 6.1 6.5 6.5 6.5 6.5 6.5 6.5 6.5 6.5 6.5 6.5 6.5 6.5 6.5 6.5 6.5 6.5 6.5 6.5 6.5 6.5 6.5 6.0 4.8 2.8 2.0
-3.6 -3.6 -5.0 -5.7 -6.4 -2.9 -3.0 -3.6 1.5 6.5 6.5 6.5 6.0 6.4 6.4 6.1 6.1 5.9 6.0 5.7 5.7 6.5 6.5 6.5 5.9 6.5 6.5 6.5 6.5 6.5 6.5 6.5 6.5 6.5 6.5 6.5 6.5 6.5 6.5 6.5 6.5 6.4 5.7 4.5 2.4
-4.1 -4.8 -6.1 -4.8 0.9 -3.1 -3.6 1.1 6.5 6.5 6.5 6.5 6.5 6.5 6.5 6.5 6.5 6.5 6.5 6.5 6.5 6.5 6.5 6.5 6.5 6.5 6.3 6.5 6.5 6.5 6.5 6.5 6.5 6.5 6.5 6.5 6.5 6.5 6.5 6.5 6.5 6.4 5.3 4.8 4.0
-5.0 -5.6 -5.3 -4.3 -3.2 -3.9 -0.5 5.9 6.5 6.5 6.5 6.5 6.5 6.5 6.5 6.5 6.5 6.5 6.5 6.5 6.5 6.5 6.5 6.5 6.5 6.5 6.5 6.5 6.5 6.5 6.5 6.5 6.5 6.5 6.5 6.5 6.5 6.5 6.5 6.2 5.7 5.3 4.9 4.7 4.2
-4.8 -5.1 -2.6 -2.1 -2.6 -3.6 2.1 6.5 6.5 6.5 6.5 6.5 6.5 6.5 6.5 6.5 6.5 6.5 6.5 6.5 6.5 6.5 6.5 6.5 6.5 6.5 6.5 6.5 6.5 6.5 6.5 6.5 6.5 6.5 6.5 6.5 6.5 6.5 6.5 6.5 6.0 5.3 5.0 4.2 3.6
-4.8 -4.6 -0.5 -0.6 -1.0 0.2 5.3 6.5 6.5 6.4 6.5 6.5 6.5 6.5 6.5 6.5 6.5 6.5 6.5 6.5 6.5 6.5 6.3 6.5 6.5 6.5 6.5 6.4 6.3 6.5 6.5 6.5 6.5 6.5 6.5 6.5 6.5 6.5 6.5 6.5 6.5 6.3 5.2 3.7 3.2
-2.9 0.5 2.4 -0.7 -0.3 0.9 6.5 6.5 6.5 5.3 6.1 6.5 6.5 6.5 6.5 6.5 6.5 6.5 6.5 6.5 6.5 6.5 6.1 6.5 6.5 6.5 6.5 6.5 6.5 6.5 6.5 6.5 6.5 6.5 6.5 6.5 6.5 6.5 6.5 6.5 6.5 6.1 4.4 3.1 2.5
-1.6 6.2 2.1 0.4 3.8 4.2 6.5 6.5 5.3 6.2 5.6 6.4 6.5 6.5 6.5 6.5 6.5 6.5 6.5 6.5 5.5 6.3 6.5 6.5 6.5 6.5 6.5 6.5 6.5 6.5 6.5 6.5 6.5 6.5 6.5 6.5 6.5 6.5 6.5 6.5 5.8 5.0 3.6 2.9 3.3
0.5 -0.3 -0.0 1.6 6.5 6.5 6.0 6.5 6.4 6.5 6.5 6.5 6.5 6.5 6.5 6.5 6.5 6.5 6.5 6.2 5.0 6.4 6.5 6.5 6.5 6.5 6.5 6.5 6.5 6.5 6.5 6.5 6.5 6.5 6.5 6.5 6.5 6.5 6.2 6.3 5.1 4.9 3.6 2.6 3.2
1.3 6.5 1.8 0.2 1.9 6.4 6.5 6.5 6.5 5.6 6.3 6.0 6.5 6.2 6.5 6.5 6.5 6.5 6.5 6.5 5.6 6.1 5.2 4.9 6.5 6.5 6.5 6.5 6.5 6.5 6.5 6.5 6.5 6.5 6.5 6.5 6.5 6.5 6.5 6.5 5.8 4.3 3.5 3.4 3.5
1.7 5.6 5.3 6.5 5.8 6.3 6.5 6.5 6.5 6.5 5.7 4.8 6.5 6.5 6.5 6.5 6.5 6.5 6.5 6.5 6.3 4.9 5.8 6.5 6.5 6.5 6.5 6.5 6.5 6.5 6.5 6.5 6.5 6.5 6.5 6.5 6.5 6.5 6.5 6.5 5.8 5.0 4.3 4.4 4.2
3.7 4.7 3.2 4.4 4.4 6.4 6.5 6.5 6.5 6.5 6.5 6.5 6.5 6.5 6.5 6.5 6.5 6.5 6.5 6.5 6.5 6.4 6.5 6.5 6.5 6.5 6.5 6.5 6.5 6.5 6.5 6.5 6.5 6.5 6.5 6.5 6.5 6.5 5.9 4.9 5.5 4.9 4.8 5.1 4.9
2.4 2.9 3.8 5.0 6.1 6.5 6.5 6.5 6.5 6.4 6.1 6.2 6.4 6.5 6.5 6.5 5.5 4.8 3.5 4.2 5.9 6.5 6.5 6.5 6.5 6.5 6.5 6.5 6.5 6.5 6.5 6.5 6.5 6.5 6.5 6.5 6.5 6.5 6.5 6.3 5.6 5.0 4.5 4.7 4.8
Wind_Speed
23 22 21 20 20 20 20 19 19 17 16 15 15 15 13 11 10 3 6 7 5 19 15 7 3 1 3 2 3 3 3 3 4 4 3 2 2 3 2 3 4 3 5 1 15
23 22 22 22 22 21 21 21 20 18 16 15 14 13 12 9 2 6 8 4 13 22 8 9 5 5 2 1 0 3 3 6 4 3 5 3 5 3 2 4 5 3 2 15 19
23 23 24 24 24 23 23 23 21 19 16 15 13 11 8 4 2 6 1 11 18 14 7 5 6 5 2 3 3 3 4 4 7 9 5 5 6 5 7 10 8 8 10 18 19
24 24 25 25 25 25 24 23 21 19 16 14 11 8 4 2 4 3 1 15 18 5 7 7 5 4 3 4 4 2 8 6 7 4 4 4 2 3 12 16 8 11 13 18 18
25 25 26 26 26 25 25 24 21 18 15 12 8 5 1 1 6 2 11 12 7 4 6 5 5 5 3 3 2 4 6 5 7 8 6 4 10 5 7 17 13 10 11 16 19
26 27 28 28 27 26 24 23 21 16 12 9 5 2 1 1 3 9 10 8 5 5 5 6 7 7 2 3 1 3 7 7 9 7 7 7 6 5 10 10 10 9 15 21 24
27 28 29 31 30 27 25 22 19 13 9 6 5 3 2 5 1 8 9 6 8 5 5 4 4 2 2 4 2 2 7 10 10 1 3 3 7 6 6 7 8 4 16 20 26
28 29 30 32 33 29 26 22 12 4 4 5 7 2 4 1 6 5 2 3 5 4 2 3 3 1 1 3 7 5 5 5 5 6 5 3 8 13 4 7 7 7 14 18 22
28 30 31 33 33 31 26 16 7 9 6 9 2 1 0 3 1 5 6 3 6 5 2 2 4 2 5 4 5 6 2 3 9 2 2 3 9 9 11 5 9 9 14 16 16
29 30 32 34 34 32 25 1 11 9 4 3 3 1 2 0 2 4 2 3 2 4 4 3 5 3 4 4 2 3 4 4 6 2 7 5 7 9 5 6 9 5 13 14 15
30 31 32 34 35 31 9 2 5 4 3 2 3 3 5 7 3 3 5 5 2 6 3 3 4 5 8 7 3 1 3 5 8 5 5 7 8 11 10 8 10 8 5 8 17
29 30 32 35 33 28 2 7 4 4 7 3 5 5 6 0 3 2 7 4 4 3 4 5 4 9 4 4 5 4 3 6 9 7 6 8 10 6 10 5 6 9 10 5 2
30 30 31 36 36 4 2 7 3 3 0 7 5 4 3 7 4 4 7 3 3 4 5 5 4 1 5 4 5 4 5 5 7 6 4 6 8 7 6 8 10 10 4 7 7
31 29 28 39 3 5 2 2 6 6 4 4 2 1 3 2 3 5 7 6 1 4 8 5 3 3 1 4 5 1 9 2 3 4 1 3 3 3 4 9 10 13 13 12 7
32 30 25 12 4 3 4 8 5 3 4 2 1 1 2 4 4 1 4 2 6 4 5 5 1 2 7 4 3 5 0 5 3 3 2 2 4 7 2 4 6 10 13 12 10
34 31 23 2 1 6 11 7 3 5 1 4 4 4 2 1 3 3 1 3 1 5 1 5 3 1 2 1 2 1 3 6 4 3 2 3 5 6 3 3 3 3 7 9 13
37 34 13 2 3 8 6 3 5 3 4 5 3 5 2 5 5 3 1 3 4 2 4 6 3 4 3 3 3 7 7 4 4 4 5 0 1 8 2 4 5 6 7 7 7
41 30 3 3 10 8 3 5 2 2 3 4 4 3 3 5 4 6 2 3 5 4 3 3 5 4 7 2 1 4 5 5 4 3 5 3 5 4 3 2 4 5 6 6 6
32 4 2 3 2 1 5 4 3 2 3 6 6 4 5 5 1 5 6 2 2 3 5 2 1 4 3 1 4 2 4 3 4 2 1 3 5 4 2 4 5 7 6 7 7
4 4 4 10 2 4 5 2 1 3 3 2 1 2 3 4 4 5 2 5 2 3 2 4 2 1 3 2 5 5 2 3 4 1 3 5 5 4 2 8 7 8 7 7 5
3 4 3 12 2 5 3 3 3 6 2 3 2 1 1 0 1 2 2 1 4 3 5 3 3 5 3 4 1 4 3 6 4 3 2 2 6 6 6 4 7 8 7 8 8
3 3 4 4 4 1 2 2 4 4 3 3 1 4 4 3 0 1 1 0 5 2 2 1 5 2 3 4 2 2 3 4 5 5 2 3 6 3 6 6 6 8 8 7 7
2 3 4 3 2 2 5 4 2 5 5 6 3 4 4 1 2 1 2 3 8 3 4 5 2 2 7 5 5 1 3 4 4 3 6 4 5 3 5 6 6 8 9 8 7
2 4 4 4 1 4 3 2 5 7 1 4 3 3 5 4 4 1 4 3 4 3 8 6 3 6 6 6 4 3 5 5 5 4 4 6 8 11 9 7 7 8 8 9 10
2 1 2 3 3 3 1 3 3 6 5 7 5 5 3 1 1 1 2 4 3 7 3 4 2 5 5 7 4 6 7 6 8 7 6 7 6 9 7 6 6 5 7 9 10
1 2 3 1 3 3 3 2 2 4 2 4 3 6 4 2 2 3 2 1 4 4 2 2 2 5 5 8 9 6 10 10 13 4 6 6 7 5 4 6 5 7 6 8 10
1 2 3 2 2 1 2 1 1 2 4 2 5 4 3 3 6 4 4 2 3 3 4 2 4 2 7 5 3 6 7 6 4 3 4 5 6 4 6 7 6 6 5 8 10
Wind_Direction
348 346 345 338 335 332 329 323 319 322 321 319 317 318 321 325 309 150 231 217 175 151 122 107 30 153 142 195 139 129 67 171 225 189 251 252 230 221 290 51 334 118 107 146 132
344 341 336 332 329 324 318 314 315 317 318 316 313 316 319 332 286 245 247 199 137 147 118 149 160 142 116 225 86 89 110 224 210 206 234 238 223 234 25 261 192 134 215 132 146
339 336 331 329 325 321 315 312 311 312 314 312 311 316 316 314 300 247 148 174 165 160 133 134 122 132 163 149 197 182 209 226 258 233 213 242 249 258 269 271 243 189 210 149 159
335 332 329 326 322 319 314 312 309 307 308 306 306 313 311 215 138 339 246 158 163 161 124 105 120 136 163 195 196 196 243 221 276 291 328 254 202 233 219 244 230 184 186 170 156
333 331 327 323 320 317 316 311 303 301 302 295 298 297 217 100 254 63 109 135 112 142 153 141 149 156 191 197 228 215 268 264 242 267 239 289 264 226 258 256 266 187 149 155 165
333 332 328 325 323 321 318 311 306 302 292 283 278 216 134 128 117 146 120 125 157 149 177 152 187 203 206 249 159 234 286 274 252 238 226 197 264 124 262 264 271 182 156 171 187
334 333 329 326 325 329 325 317 310 299 277 256 222 220 98 204 39 154 137 170 168 170 157 212 194 120 186 302 295 301 319 330 310 18 286 153 310 236 282 301 273 147 170 181 198
334 332 330 328 330 334 331 325 321 287 218 183 182 248 234 269 121 145 187 167 189 231 267 202 174 115 189 297 8 21 51 347 294 346 325 100 271 286 329 333 263 180 183 191 204
334 333 332 332 332 336 334 335 74 116 128 150 133 239 345 107 175 211 164 216 148 142 241 141 94 95 24 68 2 11 264 276 318 186 32 62 291 279 325 327 310 192 201 203 211
335 335 336 334 333 334 333 185 107 107 126 212 254 56 316 351 280 135 194 196 115 108 98 86 50 59 34 72 243 248 303 281 249 274 349 330 268 297 317 316 301 261 199 209 213
337 337 335 334 333 332 355 88 11 355 41 252 247 261 288 294 262 212 154 130 111 54 130 17 84 221 223 207 222 192 208 258 268 255 5 287 290 306 322 357 10 356 241 223 225
337 335 336 334 332 324 305 85 136 230 313 258 243 269 263 217 312 276 121 132 147 159 108 33 227 230 222 194 217 225 253 266 286 303 149 312 298 20 7 354 356 38 27 307 351
336 336 336 331 325 12 354 128 297 148 89 300 211 209 213 143 206 247 134 141 149 145 186 167 228 107 199 219 168 199 184 228 216 3 356 332 326 58 326 7 358 19 32 27 33
334 334 338 330 41 324 305 285 298 191 49 297 340 291 120 214 281 210 183 141 147 192 160 219 274 294 20 243 147 197 212 232 303 37 264 53 269 9 335 7 2 352 354 347 1
330 331 334 332 293 313 295 330 322 66 65 309 335 138 141 154 308 266 186 90 177 182 104 270 271 323 55 323 200 228 80 169 152 190 87 329 84 274 88 19 347 339 339 331 338
327 325 332 102 221 251 316 316 60 44 104 351 346 359 20 357 303 339 162 55 103 135 323 236 259 201 239 189 27 331 119 45 58 88 46 229 133 279 247 185 277 271 303 317 324
325 322 316 206 249 325 315 45 40 114 334 343 346 13 3 337 337 351 247 188 193 50 346 352 353 321 45 72 31 56 50 357 357 7 220 252 66 239 216 203 216 250 282 293 312
327 322 193 229 287 338 32 50 108 68 329 335 12 345 77 4 349 341 37 26 16 75 107 133 327 9 325 123 299 43 118 152 238 215 253 94 233 259 211 179 253 277 282 282 285
325 333 342 273 250 139 67 67 187 46 323 328 324 68 352 343 18 33 16 351 13 166 140 126 230 315 10 360 119 346 39 184 122 19 61 262 289 325 164 289 312 313 317 320 330
333 345 302 324 152 50 71 198 233 247 314 350 279 118 27 333 46 35 15 314 18 46 107 197 15 286 272 40 25 97 162 38 12 324 292 308 296 240 249 265 281 298 308 317 304
25 17 274 344 50 45 109 227 284 273 287 222 258 300 109 82 159 320 309 57 353 356 91 118 103 292 358 18 18 9 22 60 113 125 161 295 277 215 266 280 265 278 292 300 306
11 360 312 6 45 30 108 207 293 295 352 335 231 228 205 182 191 243 116 287 327 289 79 58 131 190 218 313 268 215 124 117 117 273 223 176 262 270 243 266 284 289 288 296 296
14 272 313 52 101 345 312 304 280 346 335 354 323 20 16 284 345 305 24 4 16 71 162 186 27 39 345 359 345 192 180 125 99 72 208 180 260 268 271 289 275 282 297 298 303
37 356 327 38 36 117 30 318 329 342 281 355 295 23 32 38 349 103 347 2 1 51 43 75 126 164 194 215 158 240 229 210 156 150 209 226 276 291 294 262 292 307 307 311 308
39 283 182 325 352 0 354 7 12 360 340 12 29 30 289 241 55 46 329 326 7 352 49 92 219 184 240 236 209 233 251 242 196 214 191 251 221 262 265 294 291 290 296 308 305
79 32 355 261 309 317 9 12 71 333 270 339 40 317 358 201 195 205 196 256 263 334 62 5 248 181 240 246 236 236 247 247 248 232 237 252 261 244 287 305 293 279 291 295 294
309 317 115 307 343 83 211 86 343 1 291 285 322 307 309 356 290 259 214 225 228 209 206 190 156 96 274 261 276 295 234 212 218 215 202 227 237 351 318 327 306 304 294 284 290